User: anonymous   Login
Location: White Ridge parking lot
(35.4984°N, 106.8413°W)
Time: 18:54:07
(UTC-06:00)
Language:

Envisat - Orbit

View from above orbital plane
View from above orbital plane
View from above satellite
View from above satellite

Ground track
Ground track

The orbit data is extracted from the following two-line orbital elements,

1 27386U 02009A   19236.56003163 -.00000008  00000-0  10726-4 0  9991
2 27386  98.1476 254.1596 0001408  88.7872  82.3339 14.37955313915800
Epoch (UTC): 24 August 2019 13:26:26
Eccentricity: 0.0001408
inclination: 98.1476°
perigee height: 764 km
apogee height: 766 km
right ascension of ascending node: 254.1596°
argument of perigee: 88.7872°
revolutions per day: 14.37955313
mean anomaly at epoch: 82.3339°
orbit number at epoch: 91580

The dashed part of the orbit path shows where the satellite is in the earth's shadow,  

DLR